Weather History for KFOE - April, 2014

Change the Weather History Date:

Tuesday, April 1, 2014

  Actual Average Record
Temperature  
Mean Temperature 40 °F -  
Max Temperature 53 °F 60 °F 89 °F (1956)
Min Temperature 27 °F 37 °F 24 °F (1968)
Degree Days  
Heating Degree Days 26    
Moisture  
Dew Point 23 °F    
Average Humidity 49    
Maximum Humidity 72    
Minimum Humidity 37    
Precipitation  
Precipitation 0.00 in - - ()
Sea Level Pressure  
Sea Level Pressure 30.04 in    
Wind  
Wind Speed 11 mph (NNE)    
Max Wind Speed 21 mph    
Max Gust Speed 25 mph    
Visibility 10 miles    
Events      
Averages and records for this station are not official NWS values.
T = Trace of Precipitation, MM = Missing Value Source: NWS Daily Summary

Daily Weather History Graph

Daily Weather History Graph

Search for Another Location

Airport or City:

Trip Planner

Search our weather history database for the weather conditions in past years. The results will help you decide how hot, cold, wet, or windy it might be!

Date:

Astronomy

Apr. 01, 2014 Rise Set
Actual Time 7:07 AM CDT 7:46 PM CDT
Civil Twilight 6:40 AM CDT 8:13 PM CDT
Nautical Twilight 6:08 AM CDT 8:45 PM CDT
Astronomical Twilight 5:36 AM CDT 9:17 PM CDT
Moon 8:11 AM CDT (4/1) 10:08 PM CDT (4/1)
Length of Visible Light 13h 32m
Length of Day
12h 39m
Waxing Crescent, 5% of the Moon is Illuminated
Apr 1
Waxing Crescent
Apr 7
First Quarter
Apr 15
Full
Apr 22
Last Quarter
Apr 29
New

Hourly Weather History & Observations

Time (CDT) Temp. Windchill Dew Point Humidity Pressure Visibility Wind Dir Wind Speed Gust Speed Precip Events Conditions
12:53 AM 35.1 °F 24.5 °F 18.0 °F 50% 30.02 in 10.0 mi NW 18.4 mph - N/A   Clear
1:53 AM 34.0 °F 23.4 °F 19.0 °F 54% 30.03 in 10.0 mi NNW 17.3 mph 24.2 mph N/A   Clear
2:53 AM 33.1 °F 21.2 °F 19.0 °F 56% 30.04 in 10.0 mi NNW 20.7 mph 25.3 mph N/A   Clear
3:53 AM 32.0 °F 24.2 °F 19.0 °F 59% 30.06 in 10.0 mi NNW 9.2 mph - N/A   Clear
4:53 AM 28.9 °F 21.1 °F 19.0 °F 67% 30.07 in 10.0 mi NW 8.1 mph - N/A   Clear
5:53 AM 27.0 °F 19.5 °F 19.0 °F 72% 30.07 in 10.0 mi NNW 6.9 mph - N/A   Clear
6:53 AM 28.9 °F 18.6 °F 19.9 °F 69% 30.07 in 10.0 mi NNW 12.7 mph - N/A   Clear
7:53 AM 30.9 °F 24.3 °F 19.0 °F 61% 30.10 in 10.0 mi NNW 6.9 mph - N/A   Clear
8:53 AM 34.0 °F 29.8 °F 19.0 °F 54% 30.13 in 10.0 mi Variable 4.6 mph - N/A   Clear
9:53 AM 36.0 °F 30.3 °F 19.9 °F 52% 30.14 in 10.0 mi North 6.9 mph - N/A   Clear
10:53 AM 37.9 °F - 21.0 °F 51% 30.15 in 10.0 mi North - - N/A   Scattered Clouds
11:53 AM 41.0 °F 36.4 °F 21.9 °F 47% 30.13 in 10.0 mi Variable 6.9 mph - N/A   Mostly Cloudy
12:53 PM 43.0 °F 41.3 °F 23.0 °F 45% 30.10 in 10.0 mi Variable 3.5 mph - N/A   Scattered Clouds
1:53 PM 46.9 °F - 25.0 °F 42% 30.08 in 9.0 mi Variable 3.5 mph - N/A   Mostly Cloudy
2:53 PM 48.0 °F - 25.0 °F 41% 30.06 in 10.0 mi Variable 3.5 mph - N/A   Overcast
3:53 PM 51.1 °F - 27.0 °F 39% 30.01 in 10.0 mi ENE 9.2 mph - N/A   Scattered Clouds
4:53 PM 52.0 °F - 27.0 °F 38% 30.00 in 10.0 mi East 9.2 mph - N/A   Overcast
5:53 PM 51.1 °F - 26.1 °F 38% 29.99 in 10.0 mi NE 10.4 mph - N/A   Overcast
6:53 PM 52.0 °F - 26.1 °F 37% 29.99 in 10.0 mi ENE 10.4 mph - N/A   Overcast
7:53 PM 51.1 °F - 26.1 °F 38% 29.97 in 10.0 mi ENE 8.1 mph - N/A   Overcast
8:53 PM 50.0 °F - 27.0 °F 41% 29.98 in 10.0 mi ENE 9.2 mph - N/A   Overcast
9:53 PM 50.0 °F - 27.0 °F 41% 29.99 in 10.0 mi ENE 6.9 mph - N/A   Overcast
10:53 PM 48.9 °F - 28.0 °F 44% 29.97 in 10.0 mi NE 5.8 mph - N/A   Scattered Clouds
11:03 PM 48.9 °F - 28.0 °F 44% 29.97 in 10.0 mi NE 4.6 mph - N/A   Mostly Cloudy
11:53 PM 48.9 °F - 28.0 °F 44% 29.97 in 10.0 mi NE 6.9 mph - N/A   Overcast